Terminal Aerodrome Forecast
Issued by NWS

Home | Current Version | Previous Version | Text Only | Print | Product List | Glossary On
Versions: 1 2 3 4 5 6 7 8 9 10 11 12 13 14 15 16 17 18 19 20 21 22 23 24 25 26 27 28 29 30 31 32 33 34 35 36 37 38 39 40 41 42 43 44 45 46 47 48 49 50
000
FTUS41 KCTP 221637 AAA
TAFJST
TAF AMD
KJST 221637Z 2217/2312 22010G17KT 6SM -RA BKN025 WS014/25035KT
     FM221800 22010G17KT 5SM -RA OVC020 WS020/26043KT
     FM222300 23008KT P6SM SCT040 BKN100 WS020/26040KT
     FM230200 22009KT P6SM BKN100=

USA.gov is the U.S. government's official web portal to all federal, state and local government web resources and services.